Vertical_Velocity
2 -2 -1 -4 -5 -1 -1 -2 2 2 -5 -1 1 1 -2 -2 1 1 -7 -2 5 3 2 2 -1 -1 1 1 0 -2 -1 0 -1 0 2 -1 -1 0 2 -1 1 -1 -0 -1 -1
-3 2 0 -2 1 -4 3 2 4 -2 -3 -1 -4 2 -3 -1 -2 2 -1 -4 -4 4 2 1 0 0 -1 1 1 -2 0 -3 -2 -1 -0 -0 0 1 1 0 -0 1 1 -1 3
0 0 -0 -6 4 -0 1 -3 5 -6 -1 -2 -6 -1 -1 1 -5 1 3 -2 -1 -1 0 6 1 0 0 -1 -1 -0 -3 -1 -1 -1 -0 -0 0 -1 0 -0 -4 -8 -2 -1 -2
0 1 0 -3 2 1 -0 -4 1 1 1 -1 -2 -1 -3 2 -2 2 1 1 3 -5 1 3 2 1 -0 0 -0 2 -1 -1 0 0 1 -0 1 1 -1 -7 -1 7 7 -1 -3
-2 -1 -3 0 -0 -2 4 -3 1 -3 4 -0 -5 -3 -6 2 -16 -2 -0 2 5 1 -1 3 1 -2 -0 -0 0 1 -1 1 -2 1 -0 2 -2 -1 -5 2 -3 1 3 -0 2
-3 0 -2 4 -3 1 -1 -1 -3 1 0 1 0 -2 -0 -0 -4 7 -3 1 3 4 -2 -2 1 2 -0 -0 1 -1 -0 -1 -1 -4 1 1 -1 3 -3 -1 -1 -2 2 -0 -1
-1 -2 3 3 4 7 -2 2 -7 3 3 3 -2 7 -2 -45 -4 2 1 -2 -1 7 -1 -0 2 4 1 1 1 0 1 -0 -0 -2 -1 1 2 -2 -5 -1 -1 -2 -2 1 2
1 -3 -2 -4 1 0 -2 -4 1 0 1 6 -5 4 -14 -7 -7 -13 5 1 -2 -1 4 6 -0 2 0 1 -2 1 1 1 1 1 -1 5 -15 -5 5 2 -3 -2 -2 -1 -1
3 1 -2 -3 -1 -1 2 1 1 7 3 -0 -0 1 -19 1 -9 -1 -2 1 2 -1 -0 8 2 -0 2 -0 0 -0 -0 1 -3 -1 -0 4 -5 -5 1 2 1 2 -1 -3 3
-0 1 -2 -1 -2 -3 -3 1 -2 -0 13 5 6 -2 5 -11 -0 -2 3 4 0 1 5 4 3 1 2 3 -6 -2 1 0 -1 1 2 2 -5 -4 -1 -0 -3 0 -2 -1 2
2 2 -5 -1 -4 -1 -2 11 -7 10 3 -12 -8 -6 4 2 -2 -0 5 7 7 7 1 0 6 -5 -10 -4 -2 -1 1 -0 -2 -1 1 -2 -1 -6 -2 2 1 -2 -2 -2 -4
-1 1 1 0 -5 0 -5 -2 9 1 -5 -8 0 -5 6 -2 -2 2 2 -0 3 -2 4 7 -4 -9 -0 1 2 2 1 -4 -8 -1 9 -1 -5 -4 -1 -4 -4 -2 -2 -1 2
-3 1 3 -2 2 1 1 1 1 20 3 -6 -11 -5 -26 8 -7 -5 4 2 -1 5 0 -5 -10 1 2 2 5 -1 0 -2 -1 -2 1 5 -3 -1 -7 2 5 -2 1 2 -3
3 2 -0 4 13 -4 -6 4 1 5 5 -10 -0 -15 -8 8 -5 -24 -2 -8 4 -7 -1 -5 -9 -1 3 -1 1 7 -2 0 1 5 -0 2 -6 -4 -2 -2 1 1 -2 0 -4
2 -1 -2 5 2 2 4 -2 6 1 9 -5 0 17 7 -17 -4 -2 -6 13 -3 -3 4 -29 2 4 5 -19 1 -13 -0 -2 0 1 6 -1 12 -6 3 -2 -3 -3 -0 -2 -2
3 3 4 12 9 -3 1 3 22 12 -5 -8 1 -0 6 10 1 6 3 13 -1 1 3 -12 -0 1 -20 -2 -3 -2 1 -0 -0 0 9 -9 9 -12 -2 -11 -3 -2 -0 0 -2
3 1 5 15 -1 -9 6 0 8 7 4 -9 -2 2 0 0 5 4 2 9 -8 10 5 3 -4 0 0 9 6 6 3 1 3 7 -9 -1 14 -21 -3 -2 -4 -4 -4 -2 4
4 6 -0 10 8 -2 5 9 11 -5 -5 -2 1 3 -2 -4 -4 -1 6 5 5 6 2 -2 14 1 -0 -11 -14 -6 -7 -6 -5 -1 -7 2 -4 -14 -7 -3 -1 -0 3 8 1
7 5 4 0 8 11 6 9 -12 -4 -4 1 -1 3 1 5 1 9 -1 -5 -11 -5 -7 2 -4 6 1 -2 -16 2 6 -23 2 -0 7 -5 -4 -0 1 0 1 -1 0 0 0
6 11 -8 -1 1 28 9 -9 -3 -1 5 3 -1 5 -0 -3 10 9 2 -20 -6 -5 0 -3 1 -2 -2 6 3 -15 -7 1 4 1 -1 -3 -3 -8 1 -2 -1 1 -2 1 5
16 22 -18 -0 10 29 -0 -6 -1 -6 10 7 -1 1 -2 -3 -1 -3 -11 -15 2 -1 3 -1 1 4 6 1 -12 8 8 4 -3 0 1 -1 -14 -6 -6 -5 -3 -3 -2 -1 -0
10 10 -0 5 20 -0 0 -7 -4 -3 3 -1 6 1 -0 -0 1 4 -9 -13 -2 -8 -4 -19 -2 0 -15 -2 -4 -8 -10 -6 -0 -3 -1 3 -30 -1 -2 -1 -1 -2 -1 -1 2
5 -3 31 -7 3 1 3 -2 -2 6 -3 3 -1 2 0 0 8 3 -1 -13 1 1 -15 -14 -3 3 5 0 7 4 -3 -2 -0 0 -10 5 -11 0 0 1 0 -2 -0 -0 -1
16 5 0 45 -7 -2 -0 -4 2 1 -2 1 -6 11 11 1 -1 -4 -0 -3 -1 -1 1 5 0 -13 -26 -43 -7 4 2 0 -0 7 -14 -20 -5 1 -0 -1 0 0 1 0 -0
9 -9 -12 -4 11 2 7 0 1 1 -1 4 1 1 -3 6 1 -2 -1 1 -2 -1 1 1 -2 6 -6 -0 2 -6 -3 -1 5 -18 2 -22 1 -10 -5 -4 -5 -2 2 0 0
-5 -6 15 -1 4 11 -0 -7 -4 -2 1 -5 12 -4 3 5 -8 -1 4 1 -10 2 1 2 -2 5 -2 -0 3 1 -1 1 -0 -1 5 4 -4 -1 -1 4 2 -2 -0 -0 -3
12 0 -10 -6 3 10 -15 -17 -15 4 -2 -5 -7 10 7 -22 -6 -10 4 -2 -1 0 -0 3 1 2 -10 1 2 11 -18 -3 -4 0 -4 3 -25 -2 1 1 -3 -1 -4 -6 -7
Height
1504 1506 1504 1507 1510 1511 1512 1514 1513 1514 1516 1516 1516 1515 1515 1513 1513 1512 1512 1515 1514 1514 1514 1515 1515 1517 1518 1517 1517 1519 1523 1524 1527 1526 1521 1522 1519 1518 1518 1519 1519 1520 1521 1522 1524
1500 1502 1502 1505 1508 1509 1508 1510 1511 1511 1512 1513 1513 1513 1513 1511 1511 1510 1510 1510 1512 1513 1514 1514 1515 1516 1517 1518 1517 1518 1522 1520 1520 1519 1520 1521 1521 1518 1518 1519 1520 1519 1520 1521 1524
1497 1497 1498 1502 1504 1504 1505 1507 1507 1509 1509 1510 1511 1511 1512 1511 1510 1506 1506 1506 1508 1511 1512 1514 1514 1515 1516 1518 1518 1518 1516 1516 1517 1518 1518 1518 1519 1518 1517 1517 1517 1516 1518 1519 1522
1492 1494 1494 1497 1500 1500 1502 1504 1504 1506 1506 1507 1508 1509 1510 1512 1513 1505 1504 1503 1504 1508 1512 1513 1513 1514 1514 1516 1516 1518 1516 1514 1513 1514 1516 1516 1516 1517 1517 1515 1514 1515 1516 1517 1518
1487 1490 1491 1494 1495 1496 1498 1500 1501 1503 1503 1503 1504 1507 1509 1509 1505 1503 1503 1505 1505 1506 1511 1514 1512 1512 1513 1513 1515 1515 1514 1514 1512 1511 1512 1513 1514 1514 1512 1512 1513 1513 1513 1514 1516
1484 1488 1489 1490 1492 1493 1492 1496 1497 1501 1500 1499 1502 1503 1507 1507 1502 1501 1502 1504 1506 1506 1508 1512 1513 1512 1511 1512 1513 1511 1511 1511 1511 1510 1510 1510 1510 1510 1507 1507 1509 1510 1510 1511 1513
1481 1484 1484 1484 1486 1488 1487 1491 1494 1497 1496 1496 1498 1499 1499 1491 1498 1498 1499 1501 1504 1505 1505 1508 1513 1512 1511 1511 1510 1510 1510 1508 1505 1506 1507 1508 1505 1501 1503 1504 1505 1507 1508 1509 1509
1478 1480 1482 1482 1482 1481 1485 1485 1491 1491 1492 1494 1495 1497 1486 1486 1492 1495 1498 1498 1502 1503 1505 1506 1510 1512 1510 1511 1510 1510 1511 1509 1501 1502 1503 1505 1499 1496 1498 1500 1501 1502 1504 1505 1506
1475 1477 1479 1478 1479 1479 1480 1484 1485 1485 1488 1491 1494 1495 1483 1480 1483 1488 1493 1496 1499 1502 1504 1506 1507 1510 1510 1511 1513 1513 1509 1510 1503 1499 1500 1501 1496 1495 1495 1497 1497 1497 1499 1501 1503
1473 1474 1475 1476 1477 1476 1477 1480 1480 1483 1485 1488 1491 1496 1479 1474 1478 1479 1484 1492 1495 1501 1503 1505 1505 1505 1509 1507 1511 1512 1510 1508 1501 1499 1498 1500 1495 1494 1496 1498 1494 1494 1496 1497 1498
1471 1472 1474 1474 1474 1476 1477 1477 1481 1483 1477 1471 1472 1470 1466 1469 1475 1475 1476 1484 1489 1496 1497 1499 1502 1493 1494 1497 1498 1502 1505 1503 1498 1497 1495 1493 1493 1486 1490 1492 1492 1491 1491 1490 1494
1465 1468 1470 1470 1471 1472 1473 1475 1474 1474 1474 1469 1469 1467 1467 1469 1474 1473 1473 1478 1482 1483 1493 1497 1485 1488 1493 1496 1497 1499 1502 1498 1492 1495 1496 1489 1490 1483 1482 1482 1482 1483 1482 1483 1489
1459 1465 1466 1466 1467 1468 1470 1473 1474 1472 1474 1463 1460 1460 1466 1469 1469 1467 1469 1470 1471 1479 1479 1476 1468 1485 1490 1494 1498 1496 1494 1495 1493 1493 1494 1492 1484 1476 1470 1471 1473 1473 1472 1477 1479
1454 1456 1459 1463 1466 1464 1468 1470 1474 1475 1473 1456 1453 1444 1455 1466 1459 1462 1464 1466 1470 1470 1478 1478 1474 1480 1483 1484 1487 1489 1487 1491 1494 1499 1496 1491 1479 1471 1466 1465 1468 1464 1464 1466 1472
1446 1449 1453 1456 1457 1460 1468 1467 1472 1477 1462 1449 1444 1442 1439 1447 1439 1447 1456 1462 1458 1463 1470 1457 1468 1474 1478 1462 1482 1477 1484 1489 1492 1495 1498 1488 1491 1461 1462 1461 1458 1458 1456 1458 1462
1437 1442 1447 1449 1452 1460 1465 1467 1471 1472 1459 1449 1437 1439 1441 1440 1436 1441 1446 1456 1455 1460 1459 1451 1461 1464 1455 1467 1473 1478 1485 1491 1494 1498 1491 1479 1483 1444 1453 1451 1450 1452 1453 1453 1454
1429 1434 1439 1443 1446 1455 1462 1470 1470 1451 1452 1439 1431 1433 1434 1437 1441 1435 1438 1443 1440 1458 1456 1455 1455 1458 1459 1464 1470 1475 1484 1497 1495 1501 1465 1455 1469 1439 1439 1441 1441 1441 1444 1447 1450
1422 1428 1430 1435 1443 1450 1458 1468 1460 1439 1436 1426 1423 1423 1427 1431 1435 1431 1432 1435 1433 1427 1435 1450 1452 1443 1445 1446 1457 1464 1472 1489 1484 1473 1445 1457 1445 1429 1426 1430 1433 1434 1434 1439 1445
1416 1419 1422 1428 1436 1441 1449 1451 1440 1432 1431 1425 1418 1422 1423 1424 1425 1429 1423 1412 1408 1413 1423 1433 1431 1430 1430 1440 1446 1465 1469 1455 1474 1469 1469 1441 1430 1428 1428 1429 1429 1428 1432 1432 1438
1407 1411 1412 1421 1428 1433 1432 1428 1427 1424 1417 1420 1424 1419 1412 1412 1419 1417 1414 1397 1400 1405 1402 1415 1428 1423 1430 1437 1439 1441 1449 1472 1473 1475 1461 1421 1425 1419 1428 1423 1422 1422 1422 1426 1433
1400 1400 1398 1411 1421 1418 1409 1413 1415 1414 1418 1419 1412 1420 1413 1406 1404 1407 1397 1393 1392 1396 1406 1409 1412 1425 1421 1419 1420 1439 1442 1443 1447 1453 1437 1421 1401 1399 1405 1409 1411 1414 1419 1423 1428
1390 1385 1388 1400 1405 1396 1399 1404 1405 1406 1414 1415 1416 1414 1416 1407 1399 1399 1391 1385 1383 1389 1397 1393 1410 1422 1414 1412 1412 1412 1416 1422 1437 1435 1439 1425 1381 1395 1398 1403 1406 1409 1414 1420 1426
1377 1379 1379 1386 1383 1384 1394 1397 1396 1401 1402 1408 1414 1412 1409 1409 1408 1389 1383 1384 1379 1381 1381 1393 1402 1417 1419 1418 1409 1404 1407 1411 1412 1432 1408 1423 1374 1400 1402 1402 1402 1406 1412 1416 1423
1371 1366 1372 1364 1371 1377 1384 1385 1390 1393 1396 1398 1397 1402 1402 1400 1390 1384 1377 1376 1373 1377 1378 1384 1388 1389 1384 1364 1397 1410 1401 1403 1410 1420 1386 1374 1380 1399 1403 1400 1402 1404 1408 1413 1417
1352 1346 1346 1350 1353 1364 1372 1376 1381 1384 1386 1389 1388 1392 1389 1395 1393 1383 1379 1373 1372 1370 1374 1377 1380 1379 1374 1380 1382 1382 1389 1392 1395 1377 1395 1363 1370 1381 1390 1393 1394 1400 1406 1411 1415
1328 1332 1335 1337 1343 1355 1358 1360 1366 1373 1373 1376 1377 1373 1380 1386 1382 1377 1375 1377 1368 1370 1367 1366 1375 1378 1382 1383 1383 1386 1374 1371 1369 1372 1367 1371 1363 1372 1378 1384 1393 1395 1399 1404 1409
1304 1317 1325 1328 1338 1347 1344 1347 1349 1360 1367 1366 1367 1371 1375 1372 1376 1370 1376 1368 1370 1368 1364 1362 1366 1381 1373 1380 1387 1388 1356 1363 1363 1362 1361 1360 1357 1368 1376 1381 1382 1388 1392 1393 1396